Location: Peterborough
(44.3091°N, 78.3197°W)
Time: 19:18:59
(UTC-04:00)

Vanguard 3 - Pass Details

Date: 24 March 2023
Orbit: 507 x 3246 km, 33.4° (Epoch: 06 June)

Event Time Altitude Azimuth Distance (km) Brightness Sun altitude
Exits shadow 01:44:57 17° 124° (SE) 5,550 11.1 -44.0°
Drops below altitude 10° 01:53:02 10° 99° (E) 6,129 11.6 -43.8°
Sets 01:59:58 0° 84° (E) 6,942 12.1 -43.5°
